Elmira, NY

7:41 PM EST on December 14, 2019 (GMT -0500)
Elmira-Corning Regional

Weather History for KELM - May, 2019

Change the Weather History Date:

Thursday, May 30, 2019

  Actual Average Record
Temperature  
Mean Temperature 66 °F -  
Max Temperature 73 °F 75 °F 94 °F (1929)
Min Temperature 59 °F 47 °F 31 °F (1961)
Growing Degree Days 16 (Base 50)    
Moisture  
Dew Point 58 °F    
Average Humidity 80    
Maximum Humidity 93    
Minimum Humidity 68    
Precipitation  
Precipitation 0.01 in - - ()
Sea Level Pressure  
Sea Level Pressure 29.73 in    
Wind  
Wind Speed 3 mph (SW)    
Max Wind Speed 13 mph    
Max Gust Speed -    
Visibility 10 miles    
Events Rain    
Averages and records for this station are not official NWS values.
T = Trace of Precipitation, MM = Missing Value Source: NWS Daily Summary

Daily Weather History Graph

Daily Weather History Graph

Search for Another Location

Airport or City:

Astronomy

May. 30, 2019 Rise Set
Actual Time 5:35 AM EDT 8:35 PM EDT
Civil Twilight 5:01 AM EDT 9:09 PM EDT
Nautical Twilight 4:18 AM EDT 9:51 PM EDT
Astronomical Twilight 3:28 AM EDT 10:42 PM EDT
Moon 3:45 AM EDT (5/30) 4:35 PM EDT (5/30)
Length of Visible Light 16h 07m
Length of Day
15h 00m
Waning Crescent, 15% of the Moon is Illuminated
May 30
Waning Crescent
Jun 3
New
Jun 10
First Quarter
Jun 17
Full
Jun 25
Last Quarter

Hourly Weather History & Observations

Time (EDT) Temp. Dew Point Humidity Pressure Visibility Wind Dir Wind Speed Gust Speed Precip Events Conditions
12:04 AM 59.0 °F 57.0 °F 93% 29.76 in 10.0 mi South 3.5 mph - N/A   Overcast
12:53 AM 59.0 °F 57.0 °F 93% 29.76 in 10.0 mi Calm Calm - N/A   Overcast
1:44 AM 60.1 °F 57.0 °F 90% 29.77 in 10.0 mi Calm Calm - N/A   Overcast
1:53 AM 60.1 °F 57.0 °F 90% 29.76 in 10.0 mi Calm Calm - N/A   Overcast
2:53 AM 60.1 °F 55.0 °F 83% 29.77 in 10.0 mi West 3.5 mph - N/A   Overcast
3:53 AM 60.1 °F 54.0 °F 80% 29.77 in 10.0 mi Calm Calm - N/A   Overcast
4:53 AM 59.0 °F 54.0 °F 83% 29.76 in 10.0 mi Calm Calm - N/A   Overcast
5:53 AM 59.0 °F 54.0 °F 83% 29.76 in 10.0 mi Calm Calm - N/A   Overcast
6:53 AM 60.1 °F 54.0 °F 80% 29.78 in 10.0 mi Calm Calm - N/A   Overcast
7:53 AM 61.0 °F 55.0 °F 81% 29.78 in 10.0 mi Calm Calm - N/A   Overcast
8:53 AM 62.1 °F 55.0 °F 78% 29.78 in 10.0 mi SSW 3.5 mph - N/A   Mostly Cloudy
9:07 AM 63.0 °F 55.0 °F 75% 29.78 in 10.0 mi SW 3.5 mph - N/A   Mostly Cloudy
9:53 AM 64.9 °F 55.9 °F 73% 29.77 in 10.0 mi SSW 3.5 mph - N/A   Clear
10:23 AM 64.9 °F 55.9 °F 73% 29.76 in 10.0 mi SW 4.6 mph - N/A   Mostly Cloudy
10:40 AM 66.0 °F 57.0 °F 73% 29.76 in 10.0 mi SW 4.6 mph - N/A   Scattered Clouds
10:53 AM 66.0 °F 57.0 °F 73% 29.76 in 10.0 mi SSW 5.8 mph - N/A   Mostly Cloudy
11:53 AM 66.9 °F 59.0 °F 76% 29.75 in 10.0 mi Calm Calm - N/A   Mostly Cloudy
12:33 PM 69.1 °F 60.1 °F 73% 29.74 in 10.0 mi Calm Calm - N/A   Mostly Cloudy
12:41 PM 69.1 °F 60.1 °F 73% 29.74 in 10.0 mi Calm Calm - N/A   Mostly Cloudy
12:48 PM 69.8 °F 60.8 °F 73% 29.74 in 10.0 mi Calm Calm - 0.00 in Rain Light Rain
12:53 PM 68.0 °F 60.1 °F 76% 29.73 in 10.0 mi Calm Calm - 0.01 in Rain Light Rain
1:53 PM 70.0 °F 62.1 °F 76% 29.69 in 10.0 mi SSW 6.9 mph - 0.00 in   Overcast
2:53 PM 71.1 °F 62.1 °F 73% 29.67 in 10.0 mi SW 9.2 mph - N/A   Overcast
3:53 PM 71.1 °F 61.0 °F 70% 29.65 in 10.0 mi SW 12.7 mph - N/A   Overcast
4:12 PM 72.0 °F 61.0 °F 68% 29.66 in 10.0 mi SW 10.4 mph - N/A   Overcast
4:53 PM 72.0 °F 61.0 °F 68% 29.65 in 10.0 mi SW 10.4 mph - N/A   Overcast
5:53 PM 70.0 °F 63.0 °F 78% 29.64 in 10.0 mi West 5.8 mph - 0.00 in   Overcast
6:53 PM 68.0 °F 62.1 °F 81% 29.64 in 10.0 mi ENE 8.1 mph - N/A   Overcast
7:53 PM 66.0 °F 61.0 °F 84% 29.65 in 10.0 mi ESE 5.8 mph - 0.00 in Rain Light Rain
8:53 PM 64.0 °F 61.0 °F 90% 29.66 in 10.0 mi Calm Calm - 0.00 in Rain Light Rain
9:53 PM 63.0 °F 61.0 °F 93% 29.68 in 10.0 mi Calm Calm - 0.00 in Rain Light Rain
10:53 PM 64.0 °F 61.0 °F 90% 29.68 in 10.0 mi WSW 5.8 mph - 0.00 in   Overcast
11:53 PM 64.0 °F 60.1 °F 87% 29.68 in 10.0 mi WSW 8.1 mph - N/A   Overcast